| time (UTC) | temp F | wind direction | speed MPH | gust MPH | rain 1hr in | rain 24hr in | rain mn in | humidity % | barometer mb |
| 20260504160124 | 68 | 112 | 2.0 | 7.0 | 0.00 | 0.00 | 0.00 | 33 | 1010.6 |
| 20260504151051 | 66 | 200 | 2.0 | 6.0 | 0.00 | 0.00 | 0.00 | 37 | 1011.0 |
| 20260504150548 | 66 | 332 | 1.0 | 8.0 | 0.00 | 0.00 | 0.00 | 33 | 1011.2 |
| 20260504141014 | 64 | 305 | 2.0 | 3.0 | 0.00 | 0.00 | 0.00 | 38 | 1011.6 |
| 20260504140511 | 63 | 289 | 1.0 | 1.0 | 0.00 | 0.00 | 0.00 | 40 | 1011.6 |
| 20260504130435 | 62 | 213 | 4.0 | 4.0 | 0.00 | 0.00 | 0.00 | 41 | 1012.4 |
| 20260504110322 | 46 | 241 | 0.0 | 2.0 | 0.00 | 0.00 | 0.00 | 65 | 1012.5 |
| 20260504100240 | 36 | 192 | 0.0 | 0.0 | 0.00 | 0.00 | 0.00 | 89 | 1012.3 |
| 20260504081633 | 38 | 307 | 0.0 | 0.0 | 0.00 | 0.00 | 0.00 | 84 | 1011.8 |
| 20260504081129 | 38 | 287 | 0.0 | 0.0 | 0.00 | 0.00 | 0.00 | 83 | 1011.8 |
| 20260504080626 | 39 | 283 | 0.0 | 0.0 | 0.00 | 0.00 | 0.00 | 82 | 1011.9 |
| 20260504080122 | 39 | 283 | 0.0 | 0.0 | 0.00 | 0.00 | 0.00 | 81 | 1011.8 |
| 20260504050439 | 37 | 223 | 0.0 | 0.0 | 0.00 | 0.00 | 0.00 | 78 | 1012.2 |
| 20260504045936 | 37 | 301 | 0.0 | 0.0 | 0.00 | 0.00 | 0.00 | 77 | 1012.2 |
| 20260504045432 | 37 | 301 | 0.0 | 0.0 | 0.00 | 0.00 | 0.00 | 77 | 1012.0 |
| 20260504044928 | 37 | 301 | 0.0 | 0.0 | 0.00 | 0.00 | 0.00 | 75 | 1012.2 |
| 20260504044426 | 37 | 284 | 0.0 | 0.0 | 0.00 | 0.00 | 0.00 | 76 | 1012.4 |
| 20260504043923 | 37 | 284 | 0.0 | 0.0 | 0.00 | 0.00 | 0.00 | 75 | 1012.3 |
| 20260504043420 | 37 | 284 | 0.0 | 0.0 | 0.00 | 0.00 | 0.00 | 75 | 1012.3 |
| 20260504042917 | 38 | 284 | 0.0 | 0.0 | 0.00 | 0.00 | 0.00 | 75 | 1012.1 |
| 20260504042414 | 38 | 318 | 0.0 | 0.0 | 0.00 | 0.00 | 0.00 | 75 | 1012.1 |
| 20260504041910 | 38 | 331 | 0.0 | 0.0 | 0.00 | 0.00 | 0.00 | 74 | 1012.2 |
| 20260504041406 | 38 | 308 | 0.0 | 0.0 | 0.00 | 0.00 | 0.00 | 74 | 1012.0 |
| 20260504040902 | 38 | 305 | 0.0 | 1.0 | 0.00 | 0.00 | 0.00 | 73 | 1012.0 |
| 20260504040400 | 38 | 275 | 0.0 | 0.0 | 0.00 | 0.00 | 0.00 | 73 | 1012.0 |
| 20260504035856 | 38 | 275 | 0.0 | 0.0 | 0.00 | 0.00 | 0.00 | 72 | 1012.0 |
| 20260504035354 | 39 | 274 | 0.0 | 0.0 | 0.00 | 0.00 | 0.00 | 74 | 1012.0 |
| 20260504034850 | 39 | 319 | 0.0 | 0.0 | 0.00 | 0.00 | 0.00 | 73 | 1011.8 |
| 20260504034347 | 39 | 319 | 0.0 | 0.0 | 0.00 | 0.00 | 0.00 | 74 | 1012.0 |
| 20260504033844 | 39 | 316 | 0.0 | 0.0 | 0.00 | 0.00 | 0.00 | 74 | 1011.8 |
| 20260504033343 | 39 | 316 | 0.0 | 0.0 | 0.00 | 0.00 | 0.00 | 73 | 1011.8 |
| 20260504032839 | 40 | 316 | 0.0 | 0.0 | 0.00 | 0.00 | 0.00 | 74 | 1011.8 |
| 20260504032336 | 40 | 316 | 0.0 | 0.0 | 0.00 | 0.00 | 0.00 | 72 | 1012.0 |
| 20260504031833 | 40 | 316 | 0.0 | 0.0 | 0.00 | 0.00 | 0.00 | 71 | 1011.8 |
| 20260504031330 | 40 | 316 | 0.0 | 0.0 | 0.00 | 0.00 | 0.00 | 72 | 1011.7 |
| 20260504030826 | 40 | 317 | 0.0 | 0.0 | 0.00 | 0.00 | 0.00 | 70 | 1011.7 |
| 20260504030324 | 40 | 317 | 0.0 | 0.0 | 0.00 | 0.00 | 0.00 | 70 | 1011.8 |
| 20260504025820 | 40 | 316 | 0.0 | 0.0 | 0.00 | 0.00 | 0.00 | 72 | 1011.9 |
| 20260504025317 | 41 | 317 | 0.0 | 0.0 | 0.00 | 0.00 | 0.00 | 70 | 1011.9 |
| 20260504024813 | 41 | 315 | 0.0 | 0.0 | 0.00 | 0.00 | 0.00 | 72 | 1011.7 |
| 20260504024310 | 41 | 316 | 0.0 | 0.0 | 0.00 | 0.00 | 0.00 | 69 | 1011.8 |
| 20260504023807 | 41 | 317 | 0.0 | 0.0 | 0.00 | 0.00 | 0.00 | 73 | 1011.9 |
| 20260504023303 | 41 | 312 | 0.0 | 0.0 | 0.00 | 0.00 | 0.00 | 71 | 1011.8 |
| 20260504022759 | 41 | 312 | 0.0 | 0.0 | 0.00 | 0.00 | 0.00 | 71 | 1011.8 |
| 20260504022255 | 41 | 312 | 0.0 | 0.0 | 0.00 | 0.00 | 0.00 | 67 | 1011.7 |
| 20260504021752 | 41 | 312 | 0.0 | 0.0 | 0.00 | 0.00 | 0.00 | 71 | 1011.7 |
| 20260504021250 | 41 | 312 | 0.0 | 0.0 | 0.00 | 0.00 | 0.00 | 70 | 1011.5 |
| 20260504020747 | 42 | 312 | 0.0 | 0.0 | 0.00 | 0.00 | 0.00 | 68 | 1011.6 |
| 20260504020243 | 42 | 318 | 0.0 | 0.0 | 0.00 | 0.00 | 0.00 | 69 | 1011.6 |
| 20260504015739 | 42 | 318 | 0.0 | 0.0 | 0.00 | 0.00 | 0.00 | 69 | 1011.5 |
| 20260504015236 | 42 | 318 | 0.0 | 0.0 | 0.00 | 0.00 | 0.00 | 69 | 1011.6 |
| 20260504014732 | 42 | 318 | 0.0 | 0.0 | 0.00 | 0.00 | 0.00 | 69 | 1011.4 |
| 20260504014228 | 42 | 318 | 0.0 | 0.0 | 0.00 | 0.00 | 0.00 | 67 | 1011.5 |
| 20260504013726 | 42 | 318 | 0.0 | 0.0 | 0.00 | 0.00 | 0.00 | 63 | 1011.3 |
| 20260504013224 | 43 | 318 | 0.0 | 0.0 | 0.00 | 0.00 | 0.00 | 66 | 1011.1 |
| 20260504012720 | 43 | 318 | 0.0 | 0.0 | 0.00 | 0.00 | 0.00 | 65 | 1011.3 |
| 20260504012218 | 43 | 318 | 0.0 | 0.0 | 0.00 | 0.00 | 0.00 | 62 | 1011.2 |
| 20260504011715 | 44 | 318 | 0.0 | 0.0 | 0.00 | 0.00 | 0.00 | 61 | 1011.1 |
| 20260504011212 | 44 | 318 | 0.0 | 0.0 | 0.00 | 0.00 | 0.00 | 62 | 1011.2 |
| 20260504010708 | 44 | 318 | 0.0 | 0.0 | 0.00 | 0.00 | 0.00 | 54 | 1011.3 |
| 20260504010203 | 44 | 318 | 0.0 | 0.0 | 0.00 | 0.00 | 0.00 | 57 | 1011.2 |
| 20260504005700 | 44 | 318 | 0.0 | 0.0 | 0.00 | 0.00 | 0.00 | 62 | 1010.9 |
| 20260504005157 | 44 | 318 | 0.0 | 0.0 | 0.00 | 0.00 | 0.00 | 56 | 1010.8 |
| 20260504004655 | 45 | 318 | 0.0 | 0.0 | 0.00 | 0.00 | 0.00 | 64 | 1010.7 |
| 20260504004152 | 45 | 318 | 0.0 | 0.0 | 0.00 | 0.00 | 0.00 | 52 | 1010.7 |
| 20260504003648 | 46 | 318 | 0.0 | 0.0 | 0.00 | 0.00 | 0.00 | 58 | 1010.6 |
| 20260504003145 | 46 | 318 | 0.0 | 0.0 | 0.00 | 0.00 | 0.00 | 49 | 1010.6 |
| 20260504002642 | 47 | 318 | 0.0 | 0.0 | 0.00 | 0.00 | 0.00 | 51 | 1010.5 |
| 20260504002139 | 47 | 319 | 0.0 | 0.0 | 0.00 | 0.00 | 0.00 | 54 | 1010.3 |
| 20260504001637 | 48 | 319 | 0.0 | 0.0 | 0.00 | 0.00 | 0.00 | 45 | 1010.4 |
| 20260504001133 | 48 | 318 | 0.0 | 0.0 | 0.00 | 0.00 | 0.00 | 44 | 1010.2 |
| 20260504000630 | 49 | 319 | 0.0 | 0.0 | 0.00 | 0.00 | 0.00 | 49 | 1010.2 |
| 20260504000127 | 49 | 321 | 0.0 | 0.0 | 0.00 | 0.00 | 0.00 | 46 | 1010.0 |
| 20260503235626 | 50 | 5 | 1.0 | 1.0 | 0.00 | 0.00 | 0.00 | 40 | 1010.0 |
| 20260503235122 | 50 | 316 | 0.0 | 0.0 | 0.00 | 0.00 | 0.00 | 44 | 1009.9 |
| 20260503234620 | 51 | 330 | 0.0 | 0.0 | 0.00 | 0.00 | 0.00 | 43 | 1010.0 |
| 20260503234118 | 51 | 322 | 0.0 | 0.0 | 0.00 | 0.00 | 0.00 | 41 | 1010.0 |
| 20260503233615 | 53 | 311 | 0.0 | 0.0 | 0.00 | 0.00 | 0.00 | 37 | 1009.8 |
| 20260503233110 | 53 | 326 | 0.0 | 1.0 | 0.00 | 0.00 | 0.00 | 36 | 1009.9 |
| 20260503232607 | 54 | 6 | 0.0 | 1.0 | 0.00 | 0.00 | 0.00 | 34 | 1009.8 |
| 20260503232105 | 54 | 4 | 2.0 | 2.0 | 0.00 | 0.00 | 0.00 | 33 | 1009.7 |
| 20260503231603 | 54 | 300 | 1.0 | 2.0 | 0.00 | 0.00 | 0.00 | 33 | 1009.9 |
| 20260503231059 | 55 | 334 | 2.0 | 8.0 | 0.00 | 0.00 | 0.00 | 32 | 1009.5 |
| 20260503230555 | 55 | 359 | 0.0 | 2.0 | 0.00 | 0.00 | 0.00 | 36 | 1009.5 |
| 20260503230053 | 55 | 349 | 5.0 | 7.0 | 0.00 | 0.00 | 0.00 | 32 | 1009.5 |
| 20260503225550 | 55 | 357 | 3.0 | 6.0 | 0.00 | 0.00 | 0.00 | 34 | 1009.7 |
| 20260503225045 | 55 | 1 | 2.0 | 6.0 | 0.00 | 0.00 | 0.00 | 34 | 1009.7 |
| 20260503224543 | 55 | 326 | 3.0 | 4.0 | 0.00 | 0.00 | 0.00 | 36 | 1009.8 |
| 20260503224040 | 55 | 13 | 0.0 | 3.0 | 0.00 | 0.00 | 0.00 | 34 | 1009.7 |
| 20260503223538 | 55 | 354 | 0.0 | 1.0 | 0.00 | 0.00 | 0.00 | 33 | 1009.6 |
| 20260503223033 | 55 | 7 | 3.0 | 4.0 | 0.00 | 0.00 | 0.00 | 33 | 1009.5 |
| 20260503222532 | 55 | 329 | 2.0 | 4.0 | 0.00 | 0.00 | 0.00 | 33 | 1009.5 |
| 20260503222030 | 55 | 351 | 1.0 | 3.0 | 0.00 | 0.00 | 0.00 | 35 | 1009.6 |
| 20260503221528 | 55 | 358 | 6.0 | 10.0 | 0.00 | 0.00 | 0.00 | 32 | 1009.6 |
| 20260503221025 | 55 | 329 | 1.0 | 4.0 | 0.00 | 0.00 | 0.00 | 33 | 1009.5 |
| 20260503220521 | 55 | 13 | 3.0 | 8.0 | 0.00 | 0.00 | 0.00 | 34 | 1009.6 |
| 20260503220017 | 55 | 286 | 4.0 | 9.0 | 0.00 | 0.00 | 0.00 | 34 | 1009.7 |
| 20260503215515 | 55 | 314 | 5.0 | 7.0 | 0.00 | 0.00 | 0.00 | 34 | 1009.6 |
| 20260503215012 | 55 | 302 | 4.0 | 8.0 | 0.00 | 0.00 | 0.00 | 36 | 1009.7 |
| 20260503214510 | 56 | 6 | 2.0 | 4.0 | 0.00 | 0.00 | 0.00 | 35 | 1009.6 |
| 20260503214006 | 56 | 31 | 3.0 | 3.0 | 0.00 | 0.00 | 0.00 | 33 | 1009.6 |
| 20260503213505 | 56 | 359 | 3.0 | 4.0 | 0.00 | 0.00 | 0.00 | 36 | 1009.5 |
| 20260503213001 | 55 | 341 | 2.0 | 8.0 | 0.00 | 0.00 | 0.00 | 36 | 1009.4 |
| 20260503212459 | 55 | 328 | 4.0 | 6.0 | 0.00 | 0.00 | 0.00 | 34 | 1009.5 |
| 20260503211956 | 55 | 324 | 2.0 | 4.0 | 0.00 | 0.00 | 0.00 | 36 | 1009.8 |
| 20260503211453 | 54 | 20 | 3.0 | 3.0 | 0.00 | 0.00 | 0.00 | 34 | 1009.7 |
| 20260503210948 | 55 | 28 | 3.0 | 3.0 | 0.00 | 0.00 | 0.00 | 35 | 1009.7 |
| 20260503210446 | 54 | 17 | 3.0 | 10.0 | 0.00 | 0.00 | 0.00 | 35 | 1009.5 |
| 20260503205946 | 54 | 4 | 5.0 | 13.0 | 0.00 | 0.00 | 0.00 | 34 | 1009.7 |
| 20260503205443 | 55 | 12 | 4.0 | 7.0 | 0.00 | 0.00 | 0.00 | 35 | 1009.6 |
| 20260503204939 | 57 | 295 | 3.0 | 4.0 | 0.00 | 0.00 | 0.00 | 35 | 1009.5 |
| 20260503204436 | 56 | 9 | 4.0 | 7.0 | 0.00 | 0.00 | 0.00 | 35 | 1009.3 |
| 20260503203933 | 59 | 359 | 4.0 | 4.0 | 0.00 | 0.00 | 0.00 | 33 | 1009.6 |
| 20260503203431 | 57 | 20 | 7.0 | 10.0 | 0.00 | 0.00 | 0.00 | 34 | 1009.4 |
| 20260503202927 | 54 | 29 | 7.0 | 8.0 | 0.00 | 0.00 | 0.00 | 34 | 1009.4 |
| 20260503202426 | 53 | 300 | 4.0 | 6.0 | 0.00 | 0.00 | 0.00 | 37 | 1009.4 |
| 20260503201924 | 53 | 306 | 7.0 | 10.0 | 0.00 | 0.00 | 0.00 | 36 | 1009.4 |
| 20260503201421 | 54 | 35 | 7.0 | 9.0 | 0.00 | 0.00 | 0.00 | 37 | 1009.5 |
| 20260503200918 | 55 | 282 | 7.0 | 15.0 | 0.00 | 0.00 | 0.00 | 34 | 1009.5 |
| 20260503200414 | 55 | 309 | 7.0 | 14.0 | 0.00 | 0.00 | 0.00 | 34 | 1009.4 |
| 20260503195911 | 55 | 330 | 8.0 | 14.0 | 0.00 | 0.00 | 0.00 | 37 | 1009.2 |
| 20260503195409 | 55 | 8 | 4.0 | 7.0 | 0.00 | 0.00 | 0.00 | 35 | 1009.3 |
| 20260503194905 | 53 | 356 | 6.0 | 8.0 | 0.00 | 0.00 | 0.00 | 36 | 1009.2 |
| 20260503194401 | 54 | 331 | 8.0 | 10.0 | 0.00 | 0.00 | 0.00 | 34 | 1009.3 |
| 20260503193857 | 53 | 309 | 2.0 | 3.0 | 0.00 | 0.00 | 0.00 | 36 | 1009.3 |
| 20260503193353 | 53 | 244 | 4.0 | 17.0 | 0.00 | 0.00 | 0.00 | 36 | 1009.5 |
| 20260503192849 | 55 | 50 | 5.0 | 11.0 | 0.00 | 0.00 | 0.00 | 35 | 1009.2 |
| 20260503192345 | 55 | 332 | 6.0 | 7.0 | 0.00 | 0.00 | 0.00 | 37 | 1009.2 |
| 20260503191841 | 55 | 8 | 1.0 | 6.0 | 0.00 | 0.00 | 0.00 | 34 | 1009.3 |
| 20260503191339 | 54 | 276 | 10.0 | 14.0 | 0.00 | 0.00 | 0.00 | 34 | 1009.4 |
| 20260503190835 | 53 | 328 | 4.0 | 6.0 | 0.00 | 0.00 | 0.00 | 38 | 1009.3 |
| 20260503190332 | 53 | 308 | 4.0 | 7.0 | 0.00 | 0.00 | 0.00 | 36 | 1009.2 |
| 20260503185829 | 54 | 316 | 7.0 | 11.0 | 0.00 | 0.00 | 0.00 | 35 | 1009.1 |
| 20260503185326 | 54 | 344 | 5.0 | 14.0 | 0.00 | 0.00 | 0.00 | 38 | 1009.3 |
| 20260503184826 | 54 | 333 | 2.0 | 4.0 | 0.00 | 0.00 | 0.00 | 39 | 1009.2 |
| 20260503184322 | 55 | 10 | 4.0 | 6.0 | 0.00 | 0.00 | 0.00 | 34 | 1009.3 |
| 20260503183818 | 54 | 16 | 3.0 | 7.0 | 0.00 | 0.00 | 0.00 | 37 | 1009.4 |
| 20260503183315 | 53 | 37 | 6.0 | 10.0 | 0.00 | 0.00 | 0.00 | 35 | 1009.2 |
| 20260503182812 | 55 | 306 | 2.0 | 4.0 | 0.00 | 0.00 | 0.00 | 36 | 1009.2 |
| 20260503182312 | 54 | 13 | 3.0 | 9.0 | 0.00 | 0.00 | 0.00 | 35 | 1009.2 |
| 20260503181808 | 54 | 336 | 7.0 | 10.0 | 0.00 | 0.00 | 0.00 | 33 | 1009.3 |
| 20260503181305 | 53 | 27 | 4.0 | 4.0 | 0.00 | 0.00 | 0.00 | 38 | 1009.2 |
| 20260503180802 | 53 | 316 | 2.0 | 4.0 | 0.00 | 0.00 | 0.00 | 41 | 1009.2 |
| 20260503180300 | 53 | 57 | 3.0 | 6.0 | 0.00 | 0.00 | 0.00 | 37 | 1009.3 |
| 20260503175755 | 54 | 14 | 5.0 | 10.0 | 0.00 | 0.00 | 0.00 | 37 | 1009.4 |
| 20260503175254 | 55 | 120 | 2.0 | 7.0 | 0.00 | 0.00 | 0.00 | 37 | 1009.5 |
| 20260503174755 | 52 | 336 | 3.0 | 9.0 | 0.00 | 0.00 | 0.00 | 40 | 1009.3 |
| 20260503174253 | 55 | 326 | 4.0 | 10.0 | 0.00 | 0.00 | 0.00 | 36 | 1009.4 |
| 20260503173748 | 54 | 356 | 6.0 | 11.0 | 0.00 | 0.00 | 0.00 | 37 | 1009.3 |
| 20260503173244 | 54 | 289 | 8.0 | 13.0 | 0.00 | 0.00 | 0.00 | 38 | 1009.5 |
| 20260503172741 | 53 | 1 | 12.0 | 21.0 | 0.00 | 0.00 | 0.00 | 38 | 1009.3 |
| 20260503172238 | 55 | 340 | 7.0 | 17.0 | 0.00 | 0.00 | 0.00 | 38 | 1009.1 |
| 20260503171735 | 55 | 17 | 6.0 | 8.0 | 0.00 | 0.00 | 0.00 | 38 | 1009.3 |
| 20260503171232 | 54 | 270 | 3.0 | 16.0 | 0.00 | 0.00 | 0.00 | 43 | 1009.0 |
| 20260503170729 | 54 | 11 | 6.0 | 14.0 | 0.00 | 0.00 | 0.00 | 39 | 1009.1 |
| 20260503170226 | 52 | 322 | 0.0 | 4.0 | 0.00 | 0.00 | 0.00 | 43 | 1009.4 |